Weather History for KSSI - March, 2014

Change the Weather History Date:

Monday, March 10, 2014

  Actual Average Record
Temperature  
Mean Temperature 64 °F 59 °F  
Max Temperature 76 °F 68 °F 88 °F (1974)
Min Temperature 52 °F 51 °F 32 °F (1972)
Degree Days  
Heating Degree Days 1 7  
Month to date heating degree days 108 75  
Since 1 July heating degree days 1336 1326  
Cooling Degree Days 0 1  
Month to date cooling degree days 3 9  
Year to date cooling degree days 11 18  
Growing Degree Days 14 (Base 50)    
Moisture  
Dew Point 49 °F    
Average Humidity 63    
Maximum Humidity 89    
Minimum Humidity 36    
Precipitation  
Precipitation 0.00 in 0.12 in 1.18 in (1992)
Month to date precipitation 0.75 1.32  
Year to date precipitation 7.23 8.01  
Snow  
Snow 0.00 in - 0.00 in ()
Month to date snowfall 0.0  
Since 1 July snowfall T  
Snow Depth 0.00 in    
Sea Level Pressure  
Sea Level Pressure 30.03 in    
Wind  
Wind Speed 7 mph (SW)    
Max Wind Speed 15 mph    
Max Gust Speed 25 mph    
Visibility 10 miles    
Events      
T = Trace of Precipitation, MM = Missing Value Source: NWS Daily Summary

Daily Weather History Graph

Daily Weather History Graph

Search for Another Location

Airport or City:

Trip Planner

Search our weather history database for the weather conditions in past years. The results will help you decide how hot, cold, wet, or windy it might be!

Date:

Astronomy

Mar. 10, 2014 Rise Set
Actual Time 7:41 AM EDT 7:30 PM EDT
Civil Twilight 7:17 AM EDT 7:54 PM EDT
Nautical Twilight 6:49 AM EDT 8:22 PM EDT
Astronomical Twilight 6:21 AM EDT 8:50 PM EDT
Moon 2:27 PM EDT (3/10) 3:37 AM EDT (3/10)
Length of Visible Light 12h 36m
Length of Day
11h 48m
Waxing Gibbous, 70% of the Moon is Illuminated
Mar 10
Waxing Gibbous
Mar 16
Full
Mar 23
Last Quarter
Mar 30
New
Apr 7
First Quarter

Hourly Weather History & Observations

Time (EDT) Temp. Dew Point Humidity Pressure Visibility Wind Dir Wind Speed Gust Speed Precip Events Conditions
12:53 AM 55.9 °F 50.0 °F 80% 30.10 in 10.0 mi WSW 6.9 mph - N/A   Clear
1:53 AM 57.9 °F 48.9 °F 72% 30.10 in 10.0 mi WSW 9.2 mph - N/A   Clear
2:53 AM 55.9 °F 48.9 °F 77% 30.09 in 10.0 mi WSW 5.8 mph - N/A   Clear
3:53 AM 57.0 °F 48.9 °F 74% 30.07 in 10.0 mi West 4.6 mph - N/A   Clear
4:53 AM 57.0 °F 48.9 °F 74% 30.06 in 10.0 mi West 5.8 mph - N/A   Clear
5:53 AM 55.9 °F 48.9 °F 77% 30.06 in 10.0 mi West 5.8 mph - N/A   Clear
6:53 AM 54.0 °F 48.9 °F 83% 30.07 in 10.0 mi West 6.9 mph - N/A   Clear
7:53 AM 52.0 °F 48.9 °F 89% 30.08 in 10.0 mi Calm Calm - N/A   Clear
8:53 AM 57.0 °F 50.0 °F 77% 30.09 in 10.0 mi WNW 3.5 mph - N/A   Clear
9:53 AM 63.0 °F 48.9 °F 60% 30.10 in 10.0 mi NW 5.8 mph - N/A   Clear
10:53 AM 68.0 °F 45.0 °F 43% 30.09 in 10.0 mi NNW 8.1 mph - N/A   Clear
11:53 AM 71.1 °F 46.9 °F 42% 30.09 in 10.0 mi Variable 4.6 mph - N/A   Clear
12:53 PM 72.0 °F 48.9 °F 44% 30.06 in 10.0 mi South 6.9 mph - N/A   Clear
1:53 PM 75.0 °F 46.9 °F 37% 30.03 in 10.0 mi WNW 10.4 mph - N/A   Clear
2:53 PM 70.0 °F 48.9 °F 47% 29.99 in 10.0 mi SSE 11.5 mph - N/A   Clear
3:53 PM 69.1 °F 50.0 °F 51% 29.97 in 10.0 mi SSE 8.1 mph - N/A   Clear
4:53 PM 66.9 °F 50.0 °F 54% 29.95 in 10.0 mi South 10.4 mph - N/A   Clear
5:53 PM 64.9 °F 48.9 °F 56% 29.94 in 10.0 mi SSE 11.5 mph 19.6 mph N/A   Clear
6:53 PM 63.0 °F 48.9 °F 60% 29.94 in 10.0 mi South 12.7 mph - N/A   Clear
7:53 PM 62.1 °F 51.1 °F 67% 29.94 in 10.0 mi South 12.7 mph - N/A   Clear
8:53 PM 62.1 °F 48.9 °F 62% 29.96 in 10.0 mi SSW 3.5 mph - N/A   Clear
9:53 PM 61.0 °F 48.0 °F 62% 29.97 in 10.0 mi SSW 3.5 mph - N/A   Clear
10:53 PM 57.0 °F 48.9 °F 74% 29.98 in 10.0 mi WSW 3.5 mph - N/A   Clear
11:53 PM 57.9 °F 50.0 °F 75% 29.97 in 10.0 mi WSW 4.6 mph - N/A   Clear